Back to catalog

STARLINK-4438

AliveCommunicationsSSO
NORAD 53682·PAYLOAD·🇺🇸 United States

Launched Aug 31, 2022 from Vandenberg Space Force Base

Loading…

Next Passes (next 24 hours)

TLE

FreshSource: CelesTrak SupGP

Epoch: Sep 15, 2026, 02:19 UTC

1 53682C 22105AL  26258.09701389  .00063335  00000+0  19661-2 0  2586
2 53682  97.2842 134.8768 0001800  96.8476 231.4191 15.33406062    16

Track STARLINK-4438 in real time with AllMySat

Download on the App Store